Location: Omaha
(41.2590°N, 95.9380°W)
Time: 12:28:27
(UTC-05:00)

Tiangong 2 - Pass Details

Date: 13 October 2017
Orbit: 388 x 391 km, 42.8° (Epoch: 22 October)

Event Time Altitude Azimuth Distance (km) Brightness Sun altitude
Exits shadow 06:25:52 26° 282° (WNW) 799 2.1 -13.5°
Maximum altitude 06:27:26 64° 357° (N) 435 1.3 -13.2°
Drops below altitude 10° 06:30:37 10° 80° (E) 1,422 5.4 -12.6°
Sets 06:32:43 0° 83° (E) 2,278 7.0 -12.2°
